Location: Cheyres
(46.8153°N, 6.7877°E)
Time: 04:17:47
(UTC+00:00)

CARTOSAT-1 - Pass Details

Date: 11 May 2021
Orbit: 616 x 618 km, 97.8° (Epoch: 18 June)

Event Time Altitude Azimuth Distance (km) Brightness Sun altitude
Exits shadow 20:56:40 28° 169° (S) 1,168 4.5 -16.6°
Maximum altitude 20:58:56 85° 256° (WSW) 627 3.5 -16.8°
Drops below altitude 10° 21:03:17 10° 346° (NNW) 1,993 7.2 -17.2°
Sets 21:05:28 0° 347° (NNW) 2,903 8.3 -17.5°
